BRO-1

导读 | 豆包AI

BRO-1是法国(FR)于2019年8月19日发射的微小卫星,是法国民间航天项目开发的技术验证卫星,延续了法国在航天领域持续探索创新的传统。依托欧洲成熟航天发射体系完成入轨,主要用于验证新型空间探测、小型卫星平台技术,为后续微小卫星星座部署积累工程经验,也体现了欧洲商业航天发展的创新活力。

基本信息
目录编号:
44495
目录名称:
BRO-1
国际标识:
2019-054A
轨道中心:
EARTH
卫星名称:
BRO-1
卫星全名:
--
卫星状态:
在轨 (已飞行2389 天)
发射日期:
2019-08-19 UTC
国别 :
法国 (FR)
星等 :
--
轨道信息
数据来源 国际轨道数据
星历时间: 2026-03-04T20:27:34+0800
7小时前
查看轨道信息
半长轴: 6750.373km
偏心率: 0.0009295
轨道倾角: 45.000°
近地点辐角 299.941°
升交点赤经 183.261°
平近点角 60.056°
近地点: 365.961km
远地点: 378.511km
周期: 91.992分钟
每日圈数: 15.65349
详细信息
使用方式:
暂无
2D轨道图
3D轨道图
轨道高度分析图
轨道倾角分析图
轨道综合分析图
查看轨道综合分析图